Weather History for Hulett, WY

Change the Weather History Date:

Wednesday, January 15, 2014

  Actual Average (KEFC) Record (KEFC)
Temperature  
Mean Temperature 38 °F -  
Max Temperature 46 °F 35 °F 67 °F (1973)
Min Temperature 30 °F 10 °F -21 °F (1950)
Degree Days  
Heating Degree Days 27    
Moisture  
Dew Point 23 °F    
Average Humidity 60    
Maximum Humidity 87    
Minimum Humidity 39    
Precipitation  
Precipitation 0.00 in - - ()
Sea Level Pressure  
Sea Level Pressure 29.97 in    
Wind  
Wind Speed 15 mph (WSW)    
Max Wind Speed 28 mph    
Max Gust Speed 39 mph    
Visibility 10 miles    
Events Snow    
Averages and records for this station are not official NWS values.
T = Trace of Precipitation, MM = Missing Value Source: NWS Daily Summary

Daily Weather History Graph

Daily Weather History Graph

Search for Another Location

Airport:

Trip Planner

Search our weather history database for the weather conditions in past years. The results will help you decide how hot, cold, wet, or windy it might be!

Date:

Astronomy

Jan. 15, 2014 Rise Set
Actual Time 7:31 AM MST 4:44 PM MST
Civil Twilight 6:59 AM MST 5:16 PM MST
Nautical Twilight 6:23 AM MST 5:52 PM MST
Astronomical Twilight 5:48 AM MST 6:27 PM MST
Moon 4:46 PM MST (1/15) 6:47 AM MST (1/15)
Length of Visible Light 10h 17m
Length of Day
9h 12m
Full, 100% of the Moon is Illuminated
Jan 15
Full
Jan 15
Full
Jan 23
Last Quarter
Jan 30
New
Feb 6
First Quarter

Hourly Weather History & Observations

Time (MST) Temp. Windchill Dew Point Humidity Pressure Visibility Wind Dir Wind Speed Gust Speed Precip Events Conditions
12:15 AM 30.2 °F 18.9 °F 23.0 °F 75% 30.12 in 10.0 mi SSW 16.1 mph - N/A   Overcast
12:35 AM 30.2 °F 18.9 °F 23.0 °F 75% 30.10 in 10.0 mi SW 16.1 mph - N/A   Mostly Cloudy
12:55 AM 30.2 °F 19.3 °F 21.2 °F 69% 30.10 in 10.0 mi SSW 15.0 mph - N/A   Scattered Clouds
1:15 AM 30.2 °F 19.3 °F 23.0 °F 75% 30.09 in 10.0 mi SW 15.0 mph - N/A   Mostly Cloudy
1:35 AM 30.2 °F 18.5 °F 23.0 °F 75% 30.08 in 10.0 mi SSW 17.3 mph 23.0 mph N/A   Mostly Cloudy
1:55 AM 30.2 °F 18.9 °F 23.0 °F 75% 30.08 in 10.0 mi SW 16.1 mph - N/A   Scattered Clouds
2:15 AM 30.2 °F 19.3 °F 23.0 °F 75% 30.06 in 10.0 mi SW 15.0 mph - N/A   Scattered Clouds
2:35 AM 32.0 °F 21.6 °F 23.0 °F 69% 30.06 in 10.0 mi SW 15.0 mph - N/A   Clear
2:55 AM 32.0 °F 21.6 °F 23.0 °F 69% 30.05 in 10.0 mi SW 15.0 mph - N/A   Clear
3:15 AM 32.0 °F 22.1 °F 23.0 °F 69% 30.04 in 10.0 mi SW 13.8 mph 19.6 mph N/A   Clear
3:35 AM 32.0 °F 21.2 °F 23.0 °F 69% 30.02 in 10.0 mi SSW 16.1 mph - N/A   Clear
3:55 AM 32.0 °F 20.8 °F 23.0 °F 69% 30.01 in 10.0 mi SW 17.3 mph - N/A   Clear
4:15 AM 32.0 °F 20.8 °F 23.0 °F 69% 30.00 in 10.0 mi SSW 17.3 mph - N/A   Clear
4:35 AM 32.0 °F 20.8 °F 23.0 °F 69% 30.00 in 10.0 mi SSW 17.3 mph - N/A   Clear
4:55 AM 32.0 °F 21.2 °F 23.0 °F 69% 29.99 in 10.0 mi SW 16.1 mph 21.9 mph N/A   Clear
5:15 AM 32.0 °F 22.1 °F 23.0 °F 69% 29.97 in 10.0 mi SW 13.8 mph 19.6 mph N/A   Clear
5:35 AM 32.0 °F 22.5 °F 23.0 °F 69% 29.97 in 10.0 mi SW 12.7 mph - N/A   Clear
5:55 AM 33.8 °F 24.8 °F 23.0 °F 65% 29.97 in 10.0 mi SSW 12.7 mph - N/A   Clear
6:15 AM 33.8 °F 24.3 °F 23.0 °F 65% 29.96 in 10.0 mi SSW 13.8 mph - N/A   Clear
6:35 AM 33.8 °F 23.9 °F 23.0 °F 65% 29.96 in 10.0 mi SW 15.0 mph - N/A   Clear
6:55 AM 33.8 °F 25.3 °F 23.0 °F 65% 29.96 in 10.0 mi SW 11.5 mph - N/A   Clear
7:15 AM 33.8 °F 24.3 °F 21.2 °F 60% 29.96 in 10.0 mi SW 13.8 mph - N/A   Clear
7:35 AM 33.8 °F 24.3 °F 21.2 °F 60% 29.95 in 10.0 mi SW 13.8 mph 17.3 mph N/A   Clear
7:55 AM 33.8 °F 24.3 °F 21.2 °F 60% 29.94 in 10.0 mi SW 13.8 mph 18.4 mph N/A   Clear
8:15 AM 35.6 °F 26.6 °F 23.0 °F 60% 29.94 in 10.0 mi SSW 13.8 mph 18.4 mph N/A   Clear
8:35 AM 35.6 °F 26.6 °F 23.0 °F 60% 29.94 in 10.0 mi SSW 13.8 mph - N/A   Scattered Clouds
8:55 AM 35.6 °F 27.1 °F 23.0 °F 60% 29.94 in 10.0 mi SSW 12.7 mph 17.3 mph N/A   Mostly Cloudy
9:15 AM 35.6 °F 25.9 °F 23.0 °F 60% 29.94 in 10.0 mi SSW 16.1 mph - N/A   Overcast
9:35 AM 37.4 °F 30.3 °F 23.0 °F 56% 29.95 in 10.0 mi SW 10.4 mph 16.1 mph N/A   Overcast
9:55 AM 37.4 °F 29.8 °F 23.0 °F 56% 29.95 in 10.0 mi SSW 11.5 mph - N/A   Scattered Clouds
10:15 AM 37.4 °F 29.3 °F 23.0 °F 56% 29.94 in 10.0 mi SSW 12.7 mph - N/A   Mostly Cloudy
10:35 AM 37.4 °F 28.9 °F 23.0 °F 56% 29.94 in 10.0 mi SSW 13.8 mph - N/A   Scattered Clouds
10:55 AM 37.4 °F 29.8 °F 23.0 °F 56% 29.94 in 10.0 mi SSW 11.5 mph - N/A   Clear
11:15 AM 39.2 °F 31.6 °F 23.0 °F 52% 29.94 in 10.0 mi SW 12.7 mph - N/A   Clear
11:35 AM 41.0 °F 35.2 °F 24.8 °F 53% 29.95 in 10.0 mi South 9.2 mph - N/A   Scattered Clouds
11:55 AM 41.0 °F 35.2 °F 23.0 °F 49% 29.93 in 10.0 mi SSW 9.2 mph - N/A   Overcast
12:15 PM 42.8 °F 37.5 °F 23.0 °F 46% 29.93 in 10.0 mi WSW 9.2 mph - N/A   Overcast
12:35 PM 42.8 °F 37.0 °F 23.0 °F 46% 29.92 in 10.0 mi WSW 10.4 mph 16.1 mph N/A   Overcast
12:55 PM 42.8 °F 36.6 °F 23.0 °F 46% 29.90 in 10.0 mi WSW 11.5 mph - N/A   Overcast
1:15 PM 42.8 °F 37.5 °F 23.0 °F 46% 29.89 in 10.0 mi SW 9.2 mph - N/A   Overcast
1:35 PM 42.8 °F 37.5 °F 23.0 °F 46% 29.89 in 10.0 mi WSW 9.2 mph - N/A   Scattered Clouds
1:55 PM 44.6 °F 38.8 °F 23.0 °F 43% 29.89 in 10.0 mi SW 11.5 mph - N/A   Clear
2:15 PM 42.8 °F 37.5 °F 26.6 °F 53% 29.89 in 10.0 mi SSW 9.2 mph - N/A   Clear
2:35 PM 44.6 °F 38.8 °F 23.0 °F 43% 29.88 in 10.0 mi WSW 11.5 mph - N/A   Clear
2:55 PM 44.6 °F 39.2 °F 24.8 °F 46% 29.90 in 10.0 mi WSW 10.4 mph - N/A   Clear
3:15 PM 44.6 °F 38.4 °F 23.0 °F 43% 29.88 in 10.0 mi West 12.7 mph 16.1 mph N/A   Clear
3:35 PM 46.4 °F 40.7 °F 23.0 °F 40% 29.88 in 10.0 mi West 12.7 mph 20.7 mph N/A   Clear
3:55 PM 44.6 °F 38.4 °F 23.0 °F 43% 29.88 in 10.0 mi West 12.7 mph 23.0 mph N/A   Clear
4:15 PM 44.6 °F 38.8 °F 23.0 °F 43% 29.89 in 10.0 mi West 11.5 mph 23.0 mph N/A   Scattered Clouds
4:35 PM 44.6 °F 38.4 °F 23.0 °F 43% 29.89 in 10.0 mi West 12.7 mph 21.9 mph N/A   Mostly Cloudy
4:55 PM 44.6 °F 38.8 °F 23.0 °F 43% 29.90 in 10.0 mi West 11.5 mph 20.7 mph N/A   Scattered Clouds
5:15 PM 44.6 °F 39.7 °F 23.0 °F 43% 29.90 in 10.0 mi WNW 9.2 mph 20.7 mph N/A   Clear
5:35 PM 42.8 °F 37.5 °F 23.0 °F 46% 29.90 in 10.0 mi WNW 9.2 mph 16.1 mph N/A   Clear
5:55 PM 44.6 °F 37.4 °F 21.2 °F 39% 29.91 in 10.0 mi NW 16.1 mph 27.6 mph N/A   Clear
6:15 PM 44.6 °F 38.1 °F 23.0 °F 43% 29.92 in 10.0 mi NW 13.8 mph 32.2 mph N/A   Scattered Clouds
6:35 PM 42.8 °F 36.6 °F 23.0 °F 46% 29.92 in 10.0 mi NW 11.5 mph 21.9 mph N/A   Mostly Cloudy
6:55 PM 42.8 °F 36.2 °F 24.8 °F 49% 29.93 in 10.0 mi NW 12.7 mph 18.4 mph N/A   Overcast
7:15 PM 41.0 °F 32.5 °F 26.6 °F 57% 29.94 in 10.0 mi NNW 17.3 mph 27.6 mph N/A   Overcast
7:35 PM 39.2 °F 29.6 °F 26.6 °F 61% 29.96 in 10.0 mi NNW 19.6 mph 32.2 mph N/A   Overcast
7:55 PM 37.4 °F 27.2 °F 26.6 °F 65% 29.97 in 10.0 mi NNW 19.6 mph 32.2 mph N/A   Overcast
8:15 PM 35.6 °F 23.0 °F 26.6 °F 70% 29.98 in 10.0 mi NNW 27.6 mph 33.4 mph N/A   Overcast
8:35 PM 35.6 °F 23.7 °F 23.0 °F 60% 29.99 in 10.0 mi NNW 24.2 mph 34.5 mph N/A   Overcast
8:55 PM 35.6 °F 25.9 °F 23.0 °F 60% 30.00 in 10.0 mi NW 16.1 mph 31.1 mph N/A   Overcast
9:15 PM 35.6 °F 24.0 °F 23.0 °F 60% 30.01 in 10.0 mi NNW 23.0 mph 32.2 mph N/A   Overcast
9:35 PM 33.8 °F 21.6 °F 23.0 °F 65% 30.01 in 5.0 mi NNW 23.0 mph 39.1 mph N/A Snow Light Snow
9:55 PM 32.0 °F 19.5 °F 26.6 °F 80% 30.03 in 1.0 mi NW 21.9 mph 36.8 mph N/A Snow Light Snow
10:15 PM 32.0 °F 20.8 °F 28.4 °F 87% 30.04 in 2.0 mi NW 17.3 mph 31.1 mph N/A Snow Light Snow
10:35 PM 32.0 °F 20.5 °F 28.4 °F 87% 30.05 in 0.8 mi NW 18.4 mph 27.6 mph N/A Snow Light Snow
10:55 PM 32.0 °F 20.5 °F 26.6 °F 80% 30.04 in 10.0 mi NW 18.4 mph 34.5 mph N/A   Overcast
11:15 PM 32.0 °F 21.2 °F 23.0 °F 69% 30.05 in 10.0 mi NW 16.1 mph 34.5 mph N/A   Overcast
11:35 PM 32.0 °F 19.8 °F 23.0 °F 69% 30.04 in 10.0 mi NW 20.7 mph 33.4 mph N/A   Overcast
11:55 PM 32.0 °F 19.8 °F 23.0 °F 69% 30.04 in 10.0 mi NW 20.7 mph 31.1 mph N/A   Overcast